Flag for Philippines Weather past 2 weeks in Tarlac City, Philippines

Now
84 °F

Partly sunny.


Feels Like: 91 °F
Forecast: 78 / 94 °F
Wind: 7 mph from Southwest

Location: Clarkfield Pampanga International Airport

Current Time: May 22, 2015 at 7:03:11 PM

Latest Report: May 22, 2015 at 6:00 PM


Visibility: N/A

Pressure: 29.83 "Hg

Humidity: 70%

Dew point: 73 °F

Location of Tarlac CityLocation

Historic Weather in Tarlac City — Graph

°F

Tarlac City temperature yesterday

Maximum temperature yesterday: 90 °F (at 11:00 AM)
Minimum temperature yesterday: 77 °F (at 3:00 PM)
Average temperature yesterday: 83 °F

Past Weeks' High & Low Weather Summary

 TemperatureHumidityPressure
High97 °F (May 16, 4:00 PM)100% (May 7, 6:00 PM)30.01 "Hg (May 7, 6:00 PM)
Low75 °F (May 7, 6:00 PM)32% (May 16, 4:00 PM)29.71 "Hg (May 9, 2:00 PM)
Average84 °F72%29.86 "Hg
* Reported May 7 6:00 PM — May 22 6:00 PM, Tarlac City, Weather by CustomWeather, © 2015

Note: Actual official high and low records may vary slightly from our data, if they occured in-between our weather recording intervals... More about our weather records

Advertising

Tarlac City weather history for previous 24 hours

 ConditionsComfort  
Time TempWeatherWind HumidityBarometerVisibility
6:00 PM
Fri, May 22
84 °FPartly sunny.7 mph70%29.83 "HgN/A
5:00 PM88 °FBroken clouds.5 mph70%29.80 "HgN/A
4:00 PM84 °FBroken clouds.6 mph84%29.80 "HgN/A
3:00 PM79 °FRain showers. More clouds than sun.9 mph89%29.83 "Hg5 mi
2:00 PM91 °FBroken clouds.3 mph56%29.80 "HgN/A
1:00 PM91 °FBroken clouds.3 mph59%29.83 "HgN/A
12:00 PM91 °FPartly sunny.3 mph59%29.86 "HgN/A
11:00 AM91 °FPartly sunny.3 mph63%29.89 "HgN/A
10:00 AM86 °FPartly sunny.2 mph75%29.92 "HgN/A
9:00 AM84 °FPartly sunny.3 mph84%29.92 "HgN/A
8:00 AM82 °FPartly sunny.3 mph89%29.92 "HgN/A
7:00 AM81 °FPartly sunny.1 mph94%29.92 "HgN/A
6:00 AM81 °FPartly sunny.5 mph89%29.89 "HgN/A
5:00 AM79 °FPassing clouds.2 mph94%29.89 "HgN/A
4:00 AM79 °FPassing clouds.2 mph94%29.89 "HgN/A
3:00 AM79 °FPassing clouds.3 mph94%29.89 "HgN/A
2:00 AM81 °FPassing clouds.2 mph89%29.89 "HgN/A
1:00 AM81 °FPassing clouds.2 mph89%29.92 "HgN/A
12:00 AM81 °FPassing clouds.2 mph94%29.92 "HgN/A
11:00 PM
Thu, May 21
81 °FPassing clouds.2 mph89%29.92 "HgN/A
10:00 PM82 °FPassing clouds.2 mph84%29.92 "HgN/A
9:00 PM82 °FPassing clouds.2 mph84%29.92 "HgN/A
8:00 PM84 °FPartly cloudy.1 mph84%29.89 "HgN/A
7:00 PM84 °FPartly cloudy.2 mph84%29.86 "HgN/A
Weather by CustomWeather, © 2015

See weather overviewHow to use our weather pages